Weather History for Meadville, PA

Change the Weather History Date:

Monday, December 10, 2012

  Actual Average Record
Temperature  
Mean Temperature 44 °F -  
Max Temperature 54 °F 38 °F 63 °F (1952)
Min Temperature 33 °F 24 °F -1 °F (1977)
Degree Days  
Heating Degree Days 22    
Moisture  
Dew Point 42 °F    
Average Humidity 91    
Maximum Humidity 94    
Minimum Humidity 81    
Precipitation  
Precipitation 0.97 in - - ()
Sea Level Pressure  
Sea Level Pressure 29.65 in    
Wind  
Wind Speed 6 mph (West)    
Max Wind Speed 14 mph    
Max Gust Speed 21 mph    
Visibility 7 miles    
Events Rain , Snow    
Averages and records for this station are not official NWS values.
T = Trace of Precipitation, MM = Missing Value Source: NWS Daily Summary

Daily Weather History Graph

Daily Weather History Graph

Search for Another Location

Airport:

Trip Planner

Search our weather history database for the weather conditions in past years. The results will help you decide how hot, cold, wet, or windy it might be!

Date:

Astronomy

Dec. 10, 2012 Rise Set
Actual Time 7:37 AM EST 4:50 PM EST
Civil Twilight 7:05 AM EST 5:21 PM EST
Nautical Twilight 6:30 AM EST 5:56 PM EST
Astronomical Twilight 5:57 AM EST 6:30 PM EST
Moon 4:17 AM EST (12/10) 2:39 PM EST (12/10)
Length of Visible Light 10h 16m
Length of Day
9h 13m
Waning Crescent, 10% of the Moon is Illuminated
Dec 10
Waning Crescent
Dec 13
New
Dec 20
First Quarter
Dec 28
Full
Jan 4
Last Quarter

Hourly Weather History & Observations

Time (EST) Temp. Windchill Dew Point Humidity Pressure Visibility Wind Dir Wind Speed Gust Speed Precip Events Conditions
12:36 AM 53.6 °F - 51.8 °F 94% 29.68 in 1.8 mi Variable 4.6 mph - 0.12 in Rain Heavy Rain
12:53 AM 52.0 °F - 50.0 °F 93% 29.69 in 2.0 mi West 6.9 mph - 0.18 in Rain Rain
1:15 AM 53.6 °F - 51.8 °F 94% 29.67 in 2.0 mi SSW 5.8 mph - 0.13 in Rain Heavy Rain
1:23 AM 53.6 °F - 51.8 °F 94% 29.66 in 1.5 mi South 5.8 mph - 0.20 in Rain Heavy Rain
1:29 AM 53.6 °F - 51.8 °F 94% 29.65 in 2.5 mi SSW 4.6 mph - 0.22 in Rain Rain
1:36 AM 53.6 °F - 51.8 °F 94% 29.65 in 5.0 mi Calm Calm - 0.23 in Rain Rain
1:53 AM 53.1 °F - 51.1 °F 93% 29.65 in 4.0 mi Calm Calm - 0.27 in Rain Rain
2:04 AM 53.6 °F - 51.8 °F 94% 29.65 in 2.5 mi SSW 5.8 mph - 0.05 in Rain Rain
2:14 AM 53.6 °F - 51.8 °F 94% 29.64 in 1.5 mi SSE 4.6 mph - 0.14 in Rain Rain
2:20 AM 53.6 °F - 51.8 °F 94% 29.64 in 2.5 mi Calm Calm - 0.16 in Rain Rain
2:27 AM 53.6 °F - 51.8 °F 94% 29.64 in 3.0 mi West 4.6 mph - 0.17 in Rain Rain
2:42 AM 53.6 °F - 51.8 °F 94% 29.63 in 3.0 mi Calm Calm - 0.20 in Rain Light Rain
2:53 AM 54.0 °F - 52.0 °F 93% 29.63 in 4.0 mi SSW 5.8 mph - 0.21 in Rain Light Rain
3:30 AM 53.6 °F - 51.8 °F 94% 29.61 in 9.0 mi SSW 6.9 mph - 0.03 in   Overcast
3:43 AM 53.6 °F - 51.8 °F 94% 29.61 in 10.0 mi SSW 11.5 mph - 0.03 in   Overcast
3:53 AM 54.0 °F - 52.0 °F 93% 29.61 in 10.0 mi SSW 9.2 mph - 0.03 in   Overcast
4:02 AM 53.6 °F - 51.8 °F 94% 29.59 in 10.0 mi SSW 10.4 mph - N/A   Overcast
4:53 AM 54.0 °F - 52.0 °F 93% 29.60 in 10.0 mi SSW 10.4 mph - N/A   Overcast
5:39 AM 53.6 °F - 51.8 °F 94% 29.58 in 6.0 mi SSW 10.4 mph - 0.00 in Rain Light Rain
5:53 AM 54.0 °F - 51.1 °F 90% 29.60 in 7.0 mi SW 10.4 mph 18.4 mph 0.00 in   Overcast
6:53 AM 54.0 °F - 51.1 °F 90% 29.59 in 6.0 mi SSW 10.4 mph 18.4 mph 0.01 in Rain Light Rain
7:25 AM 48.2 °F - 46.4 °F 93% 29.60 in 8.0 mi West 9.2 mph - 0.00 in Rain Light Rain
7:53 AM 48.0 °F - 46.0 °F 93% 29.61 in 5.0 mi WNW 9.2 mph - 0.01 in Rain Light Rain
8:53 AM 46.9 °F - 44.1 °F 90% 29.63 in 3.0 mi West 9.2 mph - 0.01 in Rain Light Rain
9:53 AM 45.0 °F 41.8 °F 43.0 °F 93% 29.64 in 2.5 mi WNW 5.8 mph - 0.00 in Rain Light Rain
10:05 AM 44.6 °F 41.4 °F 42.8 °F 93% 29.63 in 3.0 mi WNW 5.8 mph - 0.00 in   Overcast
10:53 AM 43.0 °F 39.5 °F 41.0 °F 93% 29.64 in 2.0 mi NNW 5.8 mph - 0.05 in Rain Light Rain
11:02 AM 42.8 °F 38.6 °F 41.0 °F 93% 29.63 in 8.0 mi NW 6.9 mph - 0.00 in Rain Light Rain
11:41 AM 42.8 °F 38.6 °F 39.2 °F 87% 29.61 in 4.0 mi NW 6.9 mph - 0.03 in Rain Light Rain
11:53 AM 42.1 °F 38.4 °F 39.9 °F 92% 29.63 in 4.0 mi West 5.8 mph - 0.04 in Rain Light Rain
12:32 PM 42.8 °F 40.1 °F 39.2 °F 87% 29.58 in 10.0 mi WNW 4.6 mph - 0.01 in   Overcast
12:53 PM 42.1 °F 36.6 °F 39.0 °F 89% 29.59 in 9.0 mi NW 9.2 mph - 0.01 in   Overcast
1:25 PM 42.8 °F 38.6 °F 39.2 °F 87% 29.58 in 5.0 mi WNW 6.9 mph - N/A   Overcast
1:53 PM 41.0 °F 37.1 °F 39.0 °F 93% 29.60 in 4.0 mi Variable 5.8 mph 16.1 mph 0.03 in Rain Light Rain
2:21 PM 39.2 °F 31.2 °F 37.4 °F 93% 29.60 in 5.0 mi WNW 13.8 mph 20.7 mph 0.01 in Rain Light Rain
2:53 PM 39.0 °F 34.0 °F 36.0 °F 89% 29.62 in 4.0 mi WNW 6.9 mph - 0.03 in Rain Light Rain
3:48 PM 39.2 °F 33.6 °F 35.6 °F 87% 29.63 in 8.0 mi West 8.1 mph - 0.04 in   Overcast
3:53 PM 39.0 °F 34.0 °F 36.0 °F 89% 29.65 in 7.0 mi West 6.9 mph - 0.04 in   Overcast
4:22 PM 37.4 °F 32.1 °F 35.6 °F 93% 29.63 in 8.0 mi West 6.9 mph - N/A   Overcast
4:26 PM 37.4 °F 32.1 °F 35.6 °F 93% 29.63 in 8.0 mi West 6.9 mph - N/A   Overcast
4:38 PM 37.4 °F 32.1 °F 35.6 °F 93% 29.63 in 9.0 mi West 6.9 mph - N/A   Overcast
4:53 PM 37.9 °F 34.4 °F 35.1 °F 89% 29.64 in 10.0 mi West 4.6 mph - N/A   Overcast
5:12 PM 37.4 °F 32.8 °F 35.6 °F 93% 29.64 in 10.0 mi West 5.8 mph - 0.00 in   Overcast
5:43 PM 37.4 °F 31.4 °F 35.6 °F 93% 29.66 in 8.0 mi West 8.1 mph - 0.00 in Rain Light Rain
5:53 PM 37.9 °F 34.4 °F 35.1 °F 89% 29.67 in 5.0 mi WNW 4.6 mph - 0.01 in Rain Light Rain
6:32 PM 37.4 °F 32.1 °F 35.6 °F 93% 29.67 in 10.0 mi West 6.9 mph - 0.00 in   Overcast
6:41 PM 37.4 °F 33.8 °F 35.6 °F 93% 29.68 in 10.0 mi West 4.6 mph - 0.00 in   Overcast
6:53 PM 37.9 °F 34.4 °F 35.1 °F 89% 29.70 in 10.0 mi WNW 4.6 mph - 0.00 in   Overcast
7:53 PM 35.1 °F 30.1 °F 33.1 °F 92% 29.71 in 8.0 mi North 5.8 mph - 0.04 in Snow Light Snow
8:44 PM 35.6 °F - 33.8 °F 93% 29.69 in 10.0 mi Calm Calm - 0.00 in   Overcast
8:53 PM 35.1 °F - 33.1 °F 92% 29.73 in 10.0 mi Calm Calm - 0.00 in   Overcast
9:16 PM 33.8 °F - 32.0 °F 93% 29.71 in 10.0 mi Calm Calm - N/A   Overcast
9:34 PM 35.6 °F 31.7 °F 32.0 °F 87% 29.71 in 10.0 mi NW 4.6 mph - N/A   Overcast
9:53 PM 35.1 °F 31.0 °F 32.0 °F 89% 29.75 in 10.0 mi NW 4.6 mph - N/A   Overcast
10:28 PM 35.6 °F 31.7 °F 32.0 °F 87% 29.73 in 10.0 mi NW 4.6 mph - N/A   Overcast
10:39 PM 35.6 °F 32.8 °F 32.0 °F 87% 29.75 in 10.0 mi Variable 3.5 mph - N/A   Overcast
10:53 PM 35.1 °F 31.0 °F 32.0 °F 89% 29.78 in 10.0 mi NW 4.6 mph - N/A   Overcast
11:45 PM 35.6 °F 30.7 °F 30.2 °F 81% 29.77 in 10.0 mi NW 5.8 mph - N/A   Overcast
11:53 PM 34.0 °F 28.8 °F 30.0 °F 85% 29.80 in 10.0 mi NW 5.8 mph - N/A   Overcast